����26�N�x�@��C��������Ԃɂ�鑪�茋��,,,,,,,,,,,,,,
,,,,,,,,,,,,,,
�P�@����n�_,,,,,,,,,,,,,,
���J�s���h�i���J�s���h���O����8�Ԓn3),,,,,,,,,,,,,,
,,,,,,,,,,,,,,
�Q�@���Ԓl�i�m��l�j������26�N7��10���`����26�N8��1��,,,,,,,,,,,,,,
,,,,,,,,,,,,,,
,�N,��,��,��,SO2,SPM,Ox,CO,NO,NO2,���x,���x,����,����
,,,,,ppm,mg/m3,ppm,ppm,ppm,ppm,��,%,�P�U����,m/s
H02,2014,7,10,1,***,0.014,0.001,***,***,***,***,***,***,***
H02,2014,7,10,2,0,0.008,0.001,0.1,0.009,0.007,***,***,***,***
H02,2014,7,10,3,0,0.006,0.001,0.1,0.008,0.006,***,***,***,***
H02,2014,7,10,4,0,0.019,0.001,0.1,0.008,0.006,***,***,***,***
H02,2014,7,10,5,0,0.015,0.001,0.1,0.007,0.004,***,***,***,***
H02,2014,7,10,6,0,0.013,0.002,0.1,0.008,0.004,***,***,***,***
H02,2014,7,10,7,0,0.011,0.002,0.1,0.009,0.004,***,***,***,***
H02,2014,7,10,8,0,0.029,0.002,0.2,0.007,0.002,***,***,***,***
H02,2014,7,10,9,0,0.028,0.003,0.1,0.01,0.003,***,***,***,***
H02,2014,7,10,10,0.001,0.023,0.003,0.1,0.011,0.003,***,***,***,***
H02,2014,7,10,11,0.001,0.026,0.003,0.1,0.009,0.003,***,***,***,***
H02,2014,7,10,12,0,0.01,0.004,0.1,0.007,0.002,***,***,***,***
H02,2014,7,10,13,0,0.017,0.003,0.1,0.008,0.003,***,***,***,***
H02,2014,7,10,14,0,0.034,0.004,0.1,0.006,0.002,***,***,***,***
H02,2014,7,10,15,0,0.025,0.005,0.1,0.006,0.002,***,***,***,***
H02,2014,7,10,16,0,0.033,0.006,0.1,0.006,0.002,***,***,***,***
H02,2014,7,10,17,0,0.037,0.007,0.1,0.005,0.002,***,***,***,***
H02,2014,7,10,18,0,0.031,0.008,0.1,0.004,0.002,***,***,***,***
H02,2014,7,10,19,0,0.024,0.009,0.1,0.003,0.001,***,***,***,***
H02,2014,7,10,20,0,0.019,0.009,0.1,0.003,0.003,***,***,***,***
H02,2014,7,10,21,0,0.042,0.009,0.2,0.005,0.005,***,***,***,***
H02,2014,7,10,22,0,0.035,0.009,0.2,0.004,0.006,***,***,***,***
H02,2014,7,10,23,0,0.021,0.007,0.2,0.005,0.009,***,***,***,***
H02,2014,7,10,24,0,0.02,0.003,0.2,0.007,0.016,***,***,***,***
H02,2014,7,11,1,0,0.018,0.003,0.2,0.001,0.015,***,***,***,***
H02,2014,7,11,2,0,0.022,0.003,0.2,0.001,0.014,***,***,***,***
H02,2014,7,11,3,0,0.037,0.003,0.2,0.001,0.014,***,***,***,***
H02,2014,7,11,4,0.001,0.039,0.004,0.2,0.001,0.013,***,***,***,***
H02,2014,7,11,5,0.002,0.031,0.003,0.5,0.005,0.017,***,***,***,***
H02,2014,7,11,6,0.002,0.011,0.005,0.4,0.003,0.013,***,***,***,***
H02,2014,7,11,7,0.003,0.013,0.005,0.8,0.008,0.013,***,***,***,***
H02,2014,7,11,8,0.001,0.012,0.008,0.5,0.006,0.007,***,***,***,***
H02,2014,7,11,9,0.002,0.021,0.009,0.4,0.007,0.006,***,***,***,***
H02,2014,7,11,10,0.001,0.018,0.013,0.3,0.005,0.005,***,***,***,***
H02,2014,7,11,11,0.001,0.008,0.013,0.3,0.007,0.005,***,***,***,***
H02,2014,7,11,12,0,0.009,0.016,0.2,0.005,0.004,***,***,***,***
H02,2014,7,11,13,0,0.018,0.018,0.2,0.005,0.004,***,***,***,***
H02,2014,7,11,14,0,0.01,0.02,0.2,0.004,0.004,***,***,***,***
H02,2014,7,11,15,0,0.004,0.028,0.2,0.003,0.005,33.2,44.8,NNW,2.6
H02,2014,7,11,16,0,0.031,0.025,0.2,0.003,0.006,32.9,46.6,NNW,2.4
H02,2014,7,11,17,0,0.035,0.023,0.3,0.004,0.009,31.7,49.1,NNW,1.8
H02,2014,7,11,18,0.001,0.029,0.021,0.3,0.005,0.011,30.7,50.6,NNW,2.2
H02,2014,7,11,19,0,0.044,0.021,0.4,0.004,0.014,29.1,57.2,NNW,1.9
H02,2014,7,11,20,0,0.048,0.025,0.4,0.003,0.01,28.5,58.5,NNW,2.3
H02,2014,7,11,21,0.001,0.048,0.026,0.4,0.001,0.011,27.8,61.1,NNW,1.7
H02,2014,7,11,22,0.001,0.058,0.03,0.4,0.001,0.009,27.5,62.7,N,1.8
H02,2014,7,11,23,0.001,0.054,0.032,0.4,0,0.009,27.3,63.6,NNW,1.5
H02,2014,7,11,24,0.001,0.05,0.03,0.4,0.001,0.012,26.8,64.9,NNW,0.5
H02,2014,7,12,1,0.002,0.042,0.03,0.3,0,0.011,26.4,59.4,NNW,1.6
H02,2014,7,12,2,0.002,0.04,0.032,0.3,0,0.012,26.1,56.2,NNW,2.1
H02,2014,7,12,3,0.002,0.039,0.035,0.3,0,0.009,25.5,57.4,N,1.3
H02,2014,7,12,4,0.002,0.035,0.034,0.3,0,0.009,25.1,59.5,N,0.8
H02,2014,7,12,5,0.002,0.04,0.029,0.3,0,0.016,24.8,60.5,NNE,1.1
H02,2014,7,12,6,0.002,0.032,0.024,0.4,0.002,0.021,24.9,62.1,NNE,0.6
H02,2014,7,12,7,0.002,0.043,0.028,0.4,0.003,0.021,27.2,54,NNE,1.6
H02,2014,7,12,8,0.002,0.029,0.035,0.3,0.002,0.014,28.4,48.4,N,2
H02,2014,7,12,9,0.001,0.034,0.041,0.3,0.002,0.01,30,42.2,N,3
H02,2014,7,12,10,0.001,0.021,0.042,0.3,0.002,0.008,31.2,39,NNW,2.9
H02,2014,7,12,11,0.001,0.029,0.042,0.3,0.002,0.009,31.4,38.9,NNW,2.7
H02,2014,7,12,12,0.001,0.026,0.042,0.3,0.002,0.009,33,34.8,NNW,2.7
H02,2014,7,12,13,0.002,0.025,0.042,0.3,0.003,0.008,34.1,33,NNW,1.6
H02,2014,7,12,14,0.004,0.039,0.047,0.6,0.002,0.01,33.5,38.5,NNW,1.2
H02,2014,7,12,15,0.003,0.039,0.052,0.5,0.001,0.009,33.9,38.7,NNW,1.3
H02,2014,7,12,16,0.003,0.04,0.049,0.4,0.001,0.009,33.5,39.6,NNW,0.8
H02,2014,7,12,17,0.003,0.027,0.044,0.5,0.001,0.01,33.2,42.1,N,0.9
H02,2014,7,12,18,0.002,0.037,0.042,0.4,0.002,0.011,32.4,46,NNW,0.6
H02,2014,7,12,19,0.003,0.041,0.041,0.4,0.001,0.011,31.4,50,NNW,0.5
H02,2014,7,12,20,0.002,0.038,0.036,0.4,0.001,0.015,30.6,53.9,WSW,0.3
H02,2014,7,12,21,0.004,0.055,0.037,0.5,0,0.016,29.6,58.2,CALM,0
H02,2014,7,12,22,0.005,0.05,0.031,0.5,0.001,0.023,28.8,60.2,CALM,0
H02,2014,7,12,23,0.003,0.048,0.027,0.6,0.001,0.021,27.9,65.1,CALM,0.2
H02,2014,7,12,24,0.001,0.053,0.015,0.6,0.003,0.021,27.2,67.6,ESE,0.3
H02,2014,7,13,1,0.001,0.051,0.017,0.5,0.002,0.018,26.2,66.5,ENE,0.8
H02,2014,7,13,2,0.001,0.037,0.014,0.4,0.002,0.018,25.4,70.7,E,0.6
H02,2014,7,13,3,0.001,0.038,0.016,0.4,0.001,0.013,25.1,65.7,NNE,0.5
H02,2014,7,13,4,0.001,0.044,0.018,0.3,0.001,0.012,25.1,67.8,E,0.4
H02,2014,7,13,5,0.001,0.028,0.014,0.4,0.002,0.015,25.5,64.9,E,0.5
H02,2014,7,13,6,0.001,0.037,0.014,0.4,0.003,0.014,25.6,65.3,N,0.3
H02,2014,7,13,7,0.001,0.039,0.016,0.4,0.002,0.013,25.8,71.5,SW,0.7
H02,2014,7,13,8,0.002,0.045,0.019,0.4,0.002,0.015,26,75.8,SSW,0.8
H02,2014,7,13,9,0.001,0.04,0.021,0.4,0.003,0.011,27.2,68.5,SSE,0.9
H02,2014,7,13,10,0.002,0.042,0.029,0.4,0.002,0.008,27.2,66.9,SSE,1.6
H02,2014,7,13,11,0.002,0.057,0.028,0.3,0.002,0.011,24.6,91.8,SE,0.6
H02,2014,7,13,12,0.003,0.054,0.028,0.4,0.003,0.012,26.3,88.8,SE,1.5
H02,2014,7,13,13,0.002,0.072,0.028,0.4,0.003,0.008,27,82.7,SSE,1.6
H02,2014,7,13,14,0.001,0.065,0.026,0.3,0.002,0.005,27.7,81.2,SSE,1.4
H02,2014,7,13,15,0.001,0.048,0.022,0.2,0.002,0.004,27.3,80.6,SSE,1.3
H02,2014,7,13,16,0,0.057,0.02,0.2,0.002,0.004,27.3,81.1,S,1
H02,2014,7,13,17,0,0.045,0.017,0.2,0.003,0.005,26.9,84.6,SSE,1.1
H02,2014,7,13,18,0,0.052,0.014,0.3,0.004,0.006,27,85.5,SSE,0.7
H02,2014,7,13,19,0,0.038,0.012,0.3,0.003,0.007,26.8,85.8,SSE,0.3
H02,2014,7,13,20,0,0.046,0.01,0.3,0.003,0.008,26.7,86.5,CALM,0.2
H02,2014,7,13,21,0,0.045,0.01,0.2,0.002,0.007,26.4,88.5,CALM,0
H02,2014,7,13,22,0.001,0.045,0.011,0.4,0.001,0.017,26,80.9,WSW,0.4
H02,2014,7,13,23,0.001,0.046,0.01,0.5,0.001,0.02,25.8,81.1,CALM,0
H02,2014,7,13,24,0.001,0.059,0.006,0.6,0.005,0.025,25.8,82.5,CALM,0
H02,2014,7,14,1,0.001,0.049,0.004,0.6,0.009,0.024,25.4,86.3,CALM,0.2
H02,2014,7,14,2,0.001,0.069,0.003,0.6,0.013,0.023,25.7,89.5,CALM,0.1
H02,2014,7,14,3,0,0.042,0.002,0.3,0.013,0.014,25.6,90.6,S,0.3
H02,2014,7,14,4,0.001,0.04,0.001,0.3,0.016,0.012,25.2,95,NNW,0.4
H02,2014,7,14,5,0.001,0.045,0.002,0.3,0.034,0.016,25.4,95.4,CALM,0.1
H02,2014,7,14,6,0.001,0.044,0.002,0.3,0.054,0.018,25.5,94.5,ENE,0.5
H02,2014,7,14,7,0.001,0.045,0.002,0.4,0.038,0.016,25.2,99.2,CALM,0.1
H02,2014,7,14,8,0.001,0.056,0.002,0.6,0.04,0.018,25.4,99.2,SE,0.3
H02,2014,7,14,9,0.001,0.034,0.005,0.5,0.028,0.018,27,93.9,WSW,0.7
H02,2014,7,14,10,0.002,0.045,0.015,0.3,0.005,0.013,27.8,86.4,WSW,0.8
H02,2014,7,14,11,0.001,0.044,0.022,0.3,0.003,0.01,29,79.1,WSW,0.9
H02,2014,7,14,12,0.001,0.037,0.025,0.3,0.002,0.007,29.7,73.8,W,1.3
H02,2014,7,14,13,0.002,0.072,0.024,0.3,0.002,0.012,29.7,75.3,WSW,1.7
H02,2014,7,14,14,0.001,0.03,0.033,0.3,0.002,0.008,31.4,66.3,WSW,1.5
H02,2014,7,14,15,0.001,0.038,0.037,0.3,0.001,0.008,30.9,67.7,WNW,0.8
H02,2014,7,14,16,0.001,0.034,0.038,0.3,0.001,0.009,30.9,67.8,NNW,0.8
H02,2014,7,14,17,0.002,0.046,0.039,0.4,0.001,0.013,30.3,70.5,WSW,0.8
H02,2014,7,14,18,0.005,0.068,0.032,0.8,0.004,0.027,29.1,74.5,NNW,1.4
H02,2014,7,14,19,0.002,0.032,0.021,0.5,0.003,0.026,28.6,70.4,NNW,1.5
H02,2014,7,14,20,0.001,0.03,0.02,0.5,0.004,0.025,28.2,73.8,NNW,0.5
H02,2014,7,14,21,0.003,0.035,0.016,0.5,0.002,0.03,27.5,77.6,N,0.3
H02,2014,7,14,22,0.005,0.038,0.009,0.7,0.002,0.035,26.9,82.1,CALM,0.2
H02,2014,7,14,23,0.003,0.025,0.01,0.4,0.001,0.026,26.3,84,CALM,0
H02,2014,7,14,24,0.003,0.023,0.008,0.4,0.002,0.026,26.1,84.3,NNE,0.4
H02,2014,7,15,1,0.003,0.029,0.004,0.5,0.003,0.036,26.1,78.2,NE,0.7
H02,2014,7,15,2,0.001,0.013,0.011,0.3,0.001,0.022,26,75,NW,0.4
H02,2014,7,15,3,0.001,0.019,0.015,0.3,0.001,0.015,25.5,76.8,N,0.9
H02,2014,7,15,4,0.001,0.013,0.007,0.3,0.003,0.024,24.9,83.7,NNE,1
H02,2014,7,15,5,0.002,0.031,0.003,0.4,0.008,0.028,24.3,89.1,NE,0.7
H02,2014,7,15,6,0.002,0.037,0.004,0.5,0.018,0.027,24.6,89.4,NNE,0.7
H02,2014,7,15,7,0.002,0.034,0.005,0.5,0.017,0.021,26,84.9,N,1.4
H02,2014,7,15,8,0.001,0.037,0.01,0.5,0.011,0.016,28.3,72.5,NNE,1.5
H02,2014,7,15,9,0.001,0.032,0.018,0.4,0.007,0.014,29.7,57.8,NNE,1.7
H02,2014,7,15,10,0.001,0.023,0.027,0.3,0.006,0.012,31.7,45.1,N,1.7
H02,2014,7,15,11,0.001,0.028,0.037,0.4,0.004,0.012,32.8,40.8,NNW,1.4
H02,2014,7,15,12,0.001,0.028,0.044,0.4,0.003,0.011,33,39,N,1.6
H02,2014,7,15,13,0.001,0.028,0.052,0.3,0.003,0.011,34.5,35.3,NNW,1
H02,2014,7,15,14,0.001,0.031,0.056,0.3,0.001,0.008,35.2,35.9,WSW,2.2
H02,2014,7,15,15,0.003,0.037,0.062,0.4,0.001,0.01,34.9,38,WSW,1.4
H02,2014,7,15,16,0.002,0.048,0.065,0.4,0.001,0.01,34.4,42,WSW,1.6
H02,2014,7,15,17,0.001,0.043,0.065,0.3,0,0.008,33.9,41.7,WSW,2.3
H02,2014,7,15,18,0.001,0.036,0.045,0.4,0.002,0.016,31.2,61.1,SW,2.7
H02,2014,7,15,19,0.001,0.023,0.035,0.3,0.001,0.014,30,65.3,SSW,1
H02,2014,7,15,20,0.001,0.033,0.027,0.3,0.003,0.018,28.8,70.3,S,0.6
H02,2014,7,15,21,0.001,0.015,0.024,0.3,0.004,0.016,28.1,72.3,SSE,1.3
H02,2014,7,15,22,0.002,0.039,0.024,0.4,0.004,0.017,27.5,75.2,SSE,1
H02,2014,7,15,23,0.001,0.029,0.023,0.3,0.004,0.016,26.9,77.9,SSE,0.7
H02,2014,7,15,24,0.001,0.032,0.024,0.3,0.003,0.014,26.6,79.1,SSE,0.7
H02,2014,7,16,1,***,0.038,0.022,***,***,***,26.6,79.9,SSE,0.5
H02,2014,7,16,2,0.001,0.049,0.019,0.3,0.004,0.018,26.1,82.4,S,0.4
H02,2014,7,16,3,0.001,0.04,0.018,0.3,0.005,0.018,26.1,82.1,SE,0.4
H02,2014,7,16,4,0.001,0.05,0.017,0.3,0.005,0.022,25.6,84.4,CALM,0.1
H02,2014,7,16,5,0.001,0.057,0.016,0.4,0.001,0.016,25.6,88.9,WSW,0.3
H02,2014,7,16,6,0.002,0.058,0.012,0.4,0.012,0.029,26.1,79.2,CALM,0.2
H02,2014,7,16,7,0.001,0.038,0.015,0.4,0.015,0.027,28.5,72.5,CALM,0.2
H02,2014,7,16,8,0.001,0.047,0.021,0.5,0.011,0.026,30.1,61.3,ENE,0.8
H02,2014,7,16,9,0.001,0.049,0.029,0.4,0.008,0.021,31.5,60.8,WSW,1.2
H02,2014,7,16,10,0.001,0.039,0.039,0.4,0.005,0.015,32.3,56.5,SW,1.3
H02,2014,7,16,11,0.001,0.046,0.056,0.4,0.004,0.013,32.9,54.9,WNW,1.2
H02,2014,7,16,12,0.001,0.056,0.06,0.3,0.005,0.015,35.4,46,WSW,1.1
H02,2014,7,16,13,0.001,0.057,0.053,0.3,0.002,0.009,35.9,43.6,WSW,1
H02,2014,7,16,14,0.001,0.039,0.04,0.2,0.006,0.008,35.9,45.9,WSW,1.3
H02,2014,7,16,15,0.002,0.057,0.045,0.2,0.003,0.011,34.8,52.9,SW,2.5
H02,2014,7,16,16,0.001,0.05,0.031,0.2,0.006,0.012,33.9,53.6,SW,2.6
H02,2014,7,16,17,0.001,0.043,0.021,0.2,0.007,0.013,33.5,52.3,SW,2.4
H02,2014,7,16,18,0.002,0.032,0.019,0.2,0.005,0.017,32.9,53.8,SSW,1.3
H02,2014,7,16,19,0.002,0.044,0.01,0.2,0.007,0.017,31.2,61,S,0.9
H02,2014,7,16,20,0.002,0.023,0.006,0.2,0.008,0.015,30,70.5,SSW,0.8
H02,2014,7,16,21,0.002,0.029,0.003,0.2,0.01,0.018,29.4,71.2,SSW,1.1
H02,2014,7,16,22,0.002,0.023,0.004,0.2,0.008,0.017,28.8,73.6,SW,1.6
H02,2014,7,16,23,0.003,0.024,0.005,0.2,0.006,0.017,29.1,71.1,CALM,0
H02,2014,7,16,24,0.003,0.033,0.012,0.2,0.001,0.014,29.6,62.9,SW,1.2
H02,2014,7,17,1,0.004,0.033,0.013,0.2,0.001,0.015,29.3,64,N,0.7
H02,2014,7,17,2,0.004,0.057,0.014,0.3,0.002,0.02,28.7,70.3,ENE,0.9
H02,2014,7,17,3,0.002,0.052,0.004,0.3,0.018,0.029,28.5,71.3,CALM,0.2
H02,2014,7,17,4,0.002,0.033,0.004,0.3,0.02,0.029,28.1,72.2,ENE,0.4
H02,2014,7,17,5,0.002,0.046,0.004,0.3,0.026,0.029,28.1,72.7,ESE,0.3
H02,2014,7,17,6,0.002,0.036,0.004,0.3,0.036,0.029,28.2,74.1,WSW,0.5
H02,2014,7,17,7,0.002,0.036,0.01,0.3,0.011,0.019,30.2,65.1,WSW,1
H02,2014,7,17,8,0.003,0.04,0.016,0.3,0.007,0.017,30.4,65.1,SW,1.1
H02,2014,7,17,9,0.002,0.024,0.02,0.3,0.007,0.015,32.5,52.6,NNW,2.2
H02,2014,7,17,10,0.001,0.029,0.028,0.2,0.003,0.008,33.6,47.7,NNE,2
H02,2014,7,17,11,0.001,0.024,0.036,0.2,0.003,0.009,35.4,44.1,WSW,1.1
H02,2014,7,17,12,0.001,0.031,0.041,0.2,0.003,0.01,35.3,42.9,NNW,1.2
H02,2014,7,17,13,0.002,0.041,0.043,0.4,0.003,0.01,34.9,46.7,W,1.4
H02,2014,7,17,14,0.002,0.028,0.043,0.5,0.003,0.01,34.6,45.9,NNW,1.4
H02,2014,7,17,15,0.001,0.033,0.048,0.3,0.002,0.007,36,43.1,NW,1.2
H02,2014,7,17,16,0.001,0.034,0.056,0.2,0.002,0.01,35.8,44.5,W,1.5
H02,2014,7,17,17,0.001,0.031,0.041,0.2,0.002,0.01,31.4,53.7,NNW,1.6
H02,2014,7,17,18,0.001,0.016,0.032,0.3,0.002,0.012,31.2,59.2,NNW,1.3
H02,2014,7,17,19,0.003,0.032,0.026,0.5,0.003,0.025,31.2,60.7,NNW,0.4
H02,2014,7,17,20,0.004,0.032,0.02,0.6,0.007,0.032,30.8,61.1,ENE,0.9
H02,2014,7,17,21,0.002,0.017,0.011,0.5,0.008,0.035,30,63.1,S,0.5
H02,2014,7,17,22,0.002,0.04,0.01,0.2,0.008,0.019,29.6,63,SSW,0.3
H02,2014,7,17,23,0.003,0.035,0.006,0.2,0.005,0.024,29.3,65.8,SW,0.4
H02,2014,7,17,24,0.004,0.035,0.005,0.2,0.013,0.028,29.1,65.9,SE,0.3
H02,2014,7,18,1,0.002,0.027,0.004,0.3,0.016,0.029,28.4,73,NNE,0.3
H02,2014,7,18,2,0.001,0.037,0.003,0.4,0.015,0.029,27.3,79.9,NNE,1.4
H02,2014,7,18,3,0.001,0.047,0.003,0.3,0.016,0.026,27.3,80.6,E,0.4
H02,2014,7,18,4,0.001,0.041,0.003,0.3,0.019,0.027,26.9,83.6,NNE,1.1
H02,2014,7,18,5,0.001,0.038,0.003,0.3,0.017,0.026,27,82.5,NNE,0.8
H02,2014,7,18,6,0.002,0.042,0.003,0.3,0.018,0.024,27.2,82.5,N,1.6
H02,2014,7,18,7,0.002,0.032,0.005,0.3,0.014,0.017,28.9,71.8,NNE,1.4
H02,2014,7,18,8,0.001,0.016,0.011,0.3,0.008,0.011,29,64.7,NNW,1.7
H02,2014,7,18,9,0,0.017,0.013,0.2,0.008,0.011,30.8,57.7,NNE,2.2
H02,2014,7,18,10,0,0.016,0.017,0.2,0.007,0.012,30.8,57.5,N,1.8
H02,2014,7,18,11,0,0.021,0.018,0.3,0.008,0.015,31.8,54.5,NNE,1.5
H02,2014,7,18,12,0,0.023,0.023,0.2,0.007,0.012,33.4,47.6,NNW,1.9
H02,2014,7,18,13,0.001,0.023,0.027,0.2,0.005,0.01,33.5,48.6,NW,1
H02,2014,7,18,14,0.001,0.021,0.032,0.2,0.005,0.01,33.8,47.3,NW,1.7
H02,2014,7,18,15,0.001,0.014,0.033,0.2,0.004,0.01,33.6,46.9,NNW,1.3
H02,2014,7,18,16,0.002,0.026,0.026,0.3,0.006,0.013,33.5,47.3,NNW,1.9
H02,2014,7,18,17,0.001,0.02,0.024,0.2,0.004,0.011,33.3,47.8,NNW,0.8
H02,2014,7,18,18,0,0.014,0.018,0.2,0.005,0.012,32.6,48.7,NNW,1.8
H02,2014,7,18,19,0,0.01,0.013,0.3,0.006,0.013,32,48.7,NNW,0.7
H02,2014,7,18,20,0.001,0.001,0.009,0.3,0.006,0.018,30.5,61.5,W,0.7
H02,2014,7,18,21,0.006,0.033,0.012,0.3,0.002,0.03,29.7,69.1,W,0.7
H02,2014,7,18,22,0.005,0.021,0.01,0.3,0.002,0.026,29.8,61,CALM,0.2
H02,2014,7,18,23,0.003,0.019,0.004,0.5,0.003,0.024,29.1,62,NNW,0.7
H02,2014,7,18,24,0.002,0.057,0.005,0.3,0.003,0.026,28.7,67.5,CALM,0.2
H02,2014,7,19,1,0.001,0.018,0.003,0.3,0.005,0.026,28.1,71.4,NE,1.3
H02,2014,7,19,2,0.001,0.025,0.002,0.4,0.019,0.028,27.9,76.8,SE,0.8
H02,2014,7,19,3,0.001,0.045,0.006,0.3,0.01,0.028,27.7,76.4,SW,0.3
H02,2014,7,19,4,0.001,0.061,0.007,0.3,0.009,0.024,27.1,81.9,SSW,0.3
H02,2014,7,19,5,0.002,0.074,0.008,0.3,0.002,0.023,26.5,85.1,WNW,0.3
H02,2014,7,19,6,0.003,0.089,0.011,0.3,0.003,0.016,26.3,88.4,SW,1.1
H02,2014,7,19,7,0.003,0.097,0.015,0.2,0.003,0.011,26.3,88.2,SW,0.8
H02,2014,7,19,8,0.002,0.098,0.013,0.3,0.005,0.016,25.8,96.6,SW,1.3
H02,2014,7,19,9,0.001,0.066,0.014,0.3,0.009,0.016,26.7,96.8,S,0.9
H02,2014,7,19,10,0.002,0.07,0.019,0.3,0.007,0.015,27.7,82.9,SSW,1.5
H02,2014,7,19,11,0.001,0.061,0.025,0.3,0.005,0.011,26.6,90,S,1.1
H02,2014,7,19,12,0.001,0.047,0.022,0.3,0.006,0.019,23.4,99.2,NNW,0.8
H02,2014,7,19,13,0,0.02,0.019,0.2,0.009,0.011,25.4,83.1,S,1
H02,2014,7,19,14,0,0.025,0.018,0.2,0.006,0.011,25.8,89.4,SSW,0.6
H02,2014,7,19,15,0,0.01,0.021,0.2,0.004,0.01,26,83.1,CALM,0.1
H02,2014,7,19,16,0,0.026,0.017,0.2,0.004,0.014,24.6,94.7,SSE,0.6
H02,2014,7,19,17,0,0.026,0.019,0.3,0.004,0.015,24.9,94.6,CALM,0.1
H02,2014,7,19,18,0,0.039,0.014,0.4,0.01,0.026,24.8,95.4,ENE,0.4
H02,2014,7,19,19,0,0.023,0.014,0.4,0.005,0.023,24.6,97.1,SW,0.3
H02,2014,7,19,20,0,0.03,0.018,0.3,0.001,0.014,24.5,97,SW,1
H02,2014,7,19,21,0,0.026,0.02,0.2,0.001,0.007,24.1,97.6,W,0.7
H02,2014,7,19,22,0.001,0.02,0.019,0.2,0.001,0.006,24,95.5,CALM,0.1
H02,2014,7,19,23,0.001,0.022,0.014,0.3,0.003,0.013,24,93.2,CALM,0.1
H02,2014,7,19,24,0,0.015,0.013,0.3,0.002,0.012,24,89.4,ENE,0.3
H02,2014,7,20,1,0,0.018,0.009,0.3,0.003,0.014,24.1,92.5,SW,0.5
H02,2014,7,20,2,0.001,0.027,0.011,0.3,0.001,0.01,23.4,95.9,CALM,0
H02,2014,7,20,3,0.001,0.029,0.011,0.2,0.001,0.007,23.4,95.8,CALM,0.1
H02,2014,7,20,4,0.001,0.029,0.011,0.2,0.001,0.007,23.4,95.3,NNW,0.4
H02,2014,7,20,5,0.001,0.026,0.006,0.3,0.001,0.011,23.3,91.6,NE,0.6
H02,2014,7,20,6,0,0.02,0.004,0.3,0.008,0.012,23.3,88.7,NE,0.3
H02,2014,7,20,7,0,0.02,0.007,0.3,0.006,0.007,24.3,84.4,NNE,0.6
H02,2014,7,20,8,0.001,0.044,0.012,0.4,0.005,0.009,25.5,79.8,NNW,0.6
H02,2014,7,20,9,0.002,0.043,0.013,0.5,0.005,0.013,25.7,78.6,NNW,0.5
H02,2014,7,20,10,0.003,0.047,0.02,1.1,0.009,0.018,28,67.4,N,0.8
H02,2014,7,20,11,0.001,0.032,0.033,0.6,0.004,0.012,29.4,61.3,NNE,1
H02,2014,7,20,12,0.001,0.045,0.045,0.3,0.001,0.007,30.5,58.8,WSW,1.3
H02,2014,7,20,13,0.001,0.025,0.046,0.3,0.002,0.007,30.8,52.8,N,1.8
H02,2014,7,20,14,0,0.013,0.041,0.3,0.003,0.006,32.3,49,W,1.1
H02,2014,7,20,15,0,0.018,0.039,0.3,0.002,0.004,32.3,47.3,WSW,1.2
H02,2014,7,20,16,0.003,0.051,0.044,0.4,0.001,0.006,30.6,64.9,SW,2.8
H02,2014,7,20,17,0.002,0.034,0.047,0.3,0.001,0.006,29.3,65.5,SSW,2.4
H02,2014,7,20,18,0.001,0.03,0.039,0.2,0.001,0.005,27.5,73.7,S,1.9
H02,2014,7,20,19,0.001,0.038,0.034,0.2,0.001,0.004,26.3,77.1,SSW,1.3
H02,2014,7,20,20,0,0.021,0.029,0.2,0.001,0.004,25.6,78.4,S,1.2
H02,2014,7,20,21,0,0.03,0.028,0.2,0.002,0.004,25.4,81.7,SSE,1.4
H02,2014,7,20,22,0.001,0.058,0.031,0.2,0.001,0.004,25.2,81.7,SSE,1.1
H02,2014,7,20,23,0,0.039,0.034,0.2,0.001,0.004,24.8,85.2,SSE,0.7
H02,2014,7,20,24,0,0.031,0.032,0.2,0.001,0.004,24.9,84.9,SSE,0.6
H02,2014,7,21,1,0,0.034,0.03,0.2,0.001,0.005,24.5,85.7,S,0.3
H02,2014,7,21,2,0,0.041,0.027,0.2,0.001,0.007,24.5,85.7,CALM,0.2
H02,2014,7,21,3,0,0.029,0.027,0.2,0.001,0.008,24.8,84.6,CALM,0.1
H02,2014,7,21,4,0,0.024,0.024,0.2,0.002,0.01,24.6,86.3,SSE,0.4
H02,2014,7,21,5,0,0.028,0.02,0.2,0.004,0.013,24.8,83.1,SSE,0.3
H02,2014,7,21,6,0,0.026,0.013,0.3,0.011,0.019,24.8,83.6,SSE,0.4
H02,2014,7,21,7,0,0.039,0.013,0.4,0.013,0.02,26.3,77.2,SSE,0.5
H02,2014,7,21,8,0,0.034,0.02,0.3,0.007,0.014,27.2,71.6,SSW,0.6
H02,2014,7,21,9,0,0.022,0.026,0.3,0.006,0.013,29.3,62.5,WSW,0.7
H02,2014,7,21,10,0,0.028,0.035,0.2,0.002,0.007,29.7,58.9,SW,1.1
H02,2014,7,21,11,0,0.03,0.042,0.2,0.002,0.005,31.1,56,SW,1.8
H02,2014,7,21,12,0,0.031,0.046,0.2,0.001,0.005,31.4,58.3,SW,1.6
H02,2014,7,21,13,0,0.032,0.045,0.2,0.002,0.008,31.8,56.2,SW,1.9
H02,2014,7,21,14,0,0.039,0.045,0.2,0.002,0.007,32.4,54.8,SW,2.6
H02,2014,7,21,15,0.001,0.032,0.045,0.2,0.002,0.007,32.3,52.5,SW,2.3
H02,2014,7,21,16,0,0.033,0.039,0.2,0.003,0.008,30.5,63.5,SW,3.6
H02,2014,7,21,17,0.001,0.044,0.031,0.2,0.004,0.009,29.7,64.7,SSW,2
H02,2014,7,21,18,0.001,0.028,0.027,0.2,0.004,0.01,28.2,70.4,SSW,2.4
H02,2014,7,21,19,0.001,0.052,0.022,0.2,0.005,0.01,27.3,78.6,S,1.2
H02,2014,7,21,20,0.001,0.025,0.018,0.2,0.005,0.008,27,77.8,S,1
H02,2014,7,21,21,0.001,0.024,0.015,0.2,0.005,0.008,26.6,80.8,SSE,0.8
H02,2014,7,21,22,0.001,0.031,0.014,0.2,0.005,0.008,26.5,81.1,SSE,1
H02,2014,7,21,23,0.001,0.021,0.013,0.1,0.004,0.007,26.3,81.7,SSE,1.1
H02,2014,7,21,24,0,0.023,0.013,0.1,0.003,0.006,26.1,81.5,SSE,0.9
H02,2014,7,22,1,***,0.023,0.012,***,***,***,26,81.3,SSE,0.7
H02,2014,7,22,2,0,0.027,0.012,0.1,0.005,0.007,26.1,81.6,SSE,0.5
H02,2014,7,22,3,0,0.023,0.01,0.1,0.008,0.011,25.7,82.4,E,0.8
H02,2014,7,22,4,0,0.03,0.006,0.2,0.012,0.019,25.8,80.8,E,0.6
H02,2014,7,22,5,0,0.037,0.007,0.2,0.015,0.018,25.8,79.6,CALM,0.1
H02,2014,7,22,6,0.001,0.039,0.004,0.3,0.036,0.027,25.8,78.9,NNE,0.5
H02,2014,7,22,7,0,0.037,0.006,0.3,0.016,0.02,26.8,75,NNE,0.8
H02,2014,7,22,8,0.001,0.04,0.01,0.3,0.018,0.015,28.8,69.5,ENE,0.7
H02,2014,7,22,9,0,0.029,0.017,0.3,0.008,0.011,29.2,67,NNE,0.9
H02,2014,7,22,10,0,0.035,0.028,0.2,0.004,0.009,30.8,58.9,N,1.4
H02,2014,7,22,11,0.001,0.045,0.031,0.3,0.003,0.009,31.7,55.1,NNW,1.4
H02,2014,7,22,12,0.003,0.051,0.033,0.5,0.006,0.016,33.5,50.7,WNW,1
H02,2014,7,22,13,0.002,0.049,0.045,0.5,0.003,0.013,33.4,49.7,NNW,1.2
H02,2014,7,22,14,0.002,0.049,0.055,0.4,0.003,0.011,35.1,45.6,W,1.5
H02,2014,7,22,15,0.003,0.052,0.056,0.4,0.001,0.009,34.6,47.3,WSW,2.5
H02,2014,7,22,16,0.003,0.055,0.057,0.4,0.001,0.01,34.2,49.4,W,1.3
H02,2014,7,22,17,0.002,0.058,0.036,0.2,0.003,0.018,31.5,62.2,SW,2.7
H02,2014,7,22,18,0.003,0.051,0.035,0.2,0.001,0.009,30.5,66.6,SW,2.1
H02,2014,7,22,19,0.004,0.054,0.027,0.4,0.001,0.012,30,65.4,SW,1
H02,2014,7,22,20,0.003,0.046,0.017,0.4,0.006,0.019,29.5,70.4,SSE,0.7
H02,2014,7,22,21,0.001,0.038,0.011,0.3,0.008,0.016,28.8,72.6,SSE,0.7
H02,2014,7,22,22,0.001,0.061,0.012,0.3,0.008,0.017,28.4,73.5,S,0.7
H02,2014,7,22,23,0.001,0.057,0.009,0.3,0.009,0.021,28,76,SSE,0.7
H02,2014,7,22,24,0.001,0.053,0.008,0.2,0.01,0.022,27.6,77.9,SE,0.4
H02,2014,7,23,1,0.001,0.044,0.007,0.2,0.011,0.022,27.3,77.7,SSE,0.4
H02,2014,7,23,2,0.001,0.055,0.005,0.3,0.016,0.027,27,77.6,ESE,0.4
H02,2014,7,23,3,0.001,0.055,0.004,0.3,0.025,0.031,26.6,79.8,NE,0.4
H02,2014,7,23,4,0.003,0.065,0.004,0.4,0.022,0.03,26.6,80.9,ENE,0.3
H02,2014,7,23,5,0.002,0.063,0.005,0.4,0.036,0.03,26.4,80.5,CALM,0.2
H02,2014,7,23,6,0.003,0.054,0.005,0.4,0.037,0.027,26.6,80.3,ENE,0.3
H02,2014,7,23,7,0.003,0.056,0.008,0.4,0.022,0.025,27.9,75.3,NNE,0.9
H02,2014,7,23,8,0.002,0.059,0.015,0.4,0.009,0.019,29.3,69.2,NNE,1.4
H02,2014,7,23,9,0.002,0.051,0.018,0.4,0.01,0.021,30.2,66.2,NNE,1.1
H02,2014,7,23,10,0.002,0.033,0.02,0.3,0.007,0.016,31,58.9,NNW,0.8
H02,2014,7,23,11,0.003,0.036,0.023,0.3,0.007,0.014,32.2,54.2,N,1.8
H02,2014,7,23,12,0.007,0.045,0.028,0.6,0.006,0.015,34.5,47.3,NW,1.1
H02,2014,7,23,13,0.003,0.047,0.042,0.2,0.002,0.006,35,45.7,WNW,1
H02,2014,7,23,14,0.003,0.048,0.052,0.2,0.002,0.006,34.8,47,NW,1
H02,2014,7,23,15,0.003,0.055,0.055,0.4,0.002,0.009,35.1,43.9,NNW,1.6
H02,2014,7,23,16,0.002,0.049,0.061,0.3,0.001,0.009,34.8,45.2,W,1.9
H02,2014,7,23,17,0.003,0.07,0.057,0.2,0.001,0.012,33.6,57.1,SW,1.7
H02,2014,7,23,18,0.003,0.049,0.039,0.2,0.001,0.01,31.8,62.5,SW,2
H02,2014,7,23,19,0.003,0.042,0.022,0.2,0.001,0.015,30.2,69.4,SW,1.6
H02,2014,7,23,20,0.006,0.048,0.01,0.2,0.001,0.026,30.7,65.4,WSW,0.8
H02,2014,7,23,21,0.003,0.025,0.024,0.2,0.001,0.014,30.5,62.8,W,0.4
H02,2014,7,23,22,0.003,0.037,0.015,0.3,0.003,0.026,30.8,54.4,N,1.3
H02,2014,7,23,23,0.001,0.032,0.008,0.3,0.003,0.023,29.9,55.9,NE,1
H02,2014,7,23,24,0.001,0.037,0.005,0.3,0.003,0.03,29.7,59.8,NNE,0.5
H02,2014,7,24,1,0.001,0.026,0.004,0.2,0.003,0.023,29.5,56.6,NNE,1.3
H02,2014,7,24,2,0.001,0.029,0.003,0.2,0.006,0.024,28.7,61.4,NE,1
H02,2014,7,24,3,0.002,0.028,0.002,0.2,0.015,0.025,28.4,63,NE,1.1
H02,2014,7,24,4,0.002,0.028,0.002,0.2,0.015,0.024,28.5,61.8,NNE,0.7
H02,2014,7,24,5,0.002,0.019,0.002,0.2,0.017,0.024,28.2,63.2,CALM,0.2
H02,2014,7,24,6,0.002,0.015,0.003,0.2,0.023,0.024,28.2,63.3,NNW,0.8
H02,2014,7,24,7,0.002,0.034,0.005,0.3,0.018,0.021,30.3,58.7,NNW,0.7
H02,2014,7,24,8,0.002,0.028,0.01,0.4,0.017,0.02,31.7,57.9,NNW,1.1
H02,2014,7,24,9,0.005,0.031,0.013,0.6,0.017,0.022,32.6,55.7,NNW,1.6
H02,2014,7,24,10,0.002,0.025,0.016,0.3,0.011,0.017,32.7,55.1,NNW,2.3
H02,2014,7,24,11,0,0.03,0.026,0.2,0.005,0.009,33.3,52.3,NNW,2.9
H02,2014,7,24,12,0,0.025,0.033,0.2,0.004,0.007,34.6,49.5,NNW,3.4
H02,2014,7,24,13,0,0.028,0.035,0.2,0.003,0.007,33.7,52,N,4.2
H02,2014,7,24,14,0,0.026,0.034,0.2,0.003,0.007,34.2,51.3,N,3
H02,2014,7,24,15,0,0.026,0.031,0.2,0.003,0.007,34.8,49.5,NNW,3.4
H02,2014,7,24,16,0,0.027,0.034,0.2,0.003,0.007,33.9,50.3,NNW,4
H02,2014,7,24,17,0,0.02,0.024,0.2,0.003,0.006,33.6,50.5,N,3.1